STARLINK-4689 (53590 NORAD) Tracking and Keplerian Element Data

This shows tracking and keplerian element data for the satellite.

Feedback or suggestion? Click here.




ElementValue
Catalog53590
NameSTARLINK-4689
Epoch Orbit130
Epoch Day324.91667824
Epoch Year2022
RAAN252.7519
Inclination53.2161
Eccentricity0.0001449
Argument of Perigee85.299
Mean Anonmoly219.0226
Mean Motion15.08829102
Decay Rate-0.00010711
L11 53590U 22104C 22324.91667824 -.00010711 00000+0 -65608-3 0 9996
L22 53590 53.2161 252.7519 0001449 85.2990 219.0226 15.08829102 1306



Live tracking and technical data element details for STARLINK-4689 (NORAD 53590). STARLINK-4689 can be tracked NOW for your location showing map with azimuth and elevation plus other details from your city location.







IsCatalogInMostPopularTable: catalog: 53590, numindb: 1
Update: records affected: 1



GetName: 53590 STARLINK-4689

Hit Count: updated at: Tue, 29 Nov 2022 02:04:14 GMT